Vorticity
-7 7 26 -2 3 21 11 10 6 -1 2 4 7 9 8 4 1 3 1 2 3 2 4 3 1 3 4 4 4 3 3 3 2 -1 2 5 5 5 5 5 4 4 4 4 1 -0 4 3 11 18 6 15 20 3 1 -4 -5 1 -1 -1 2 6 7 4 6 7 6 5 4 5 7 5 5 7 5 6 7 5 6 5 5 5 5 6 5 5 6 5
14 -3 18 11 3 16 12 12 12 -0 3 9 12 15 16 10 2 4 4 1 4 3 2 4 1 2 2 3 4 3 2 2 1 -1 3 5 3 6 5 4 4 2 4 5 4 -1 3 4 8 19 8 11 24 7 2 2 0 4 0 0 2 5 8 6 6 7 7 5 5 6 6 5 4 6 6 5 6 5 6 6 5 5 6 5 5 5 6 6
22 2 7 19 8 9 11 16 15 -0 2 3 -1 12 23 21 9 4 6 -0 3 5 2 3 1 3 2 1 3 4 5 1 0 2 4 6 4 6 4 5 4 3 4 4 4 -0 1 5 7 19 10 8 21 7 -0 1 3 9 2 -1 1 3 6 6 7 5 6 7 5 7 4 4 5 6 7 5 6 5 6 6 5 6 6 5 5 5 6 6
19 14 2 18 15 9 7 10 20 5 3 7 -7 0 10 16 17 6 7 3 2 6 2 2 2 3 3 3 2 0 4 2 1 4 4 6 5 6 5 5 5 3 4 3 6 1 0 5 7 18 8 6 21 7 -0 -1 1 10 4 1 -0 -1 5 5 8 6 4 8 5 5 4 4 6 6 7 6 6 7 6 6 5 6 6 5 6 5 6 6
6 15 -2 9 13 15 17 4 16 15 7 12 0 9 12 8 19 15 11 6 3 6 0 2 2 3 3 2 4 2 4 4 4 3 3 6 3 6 7 5 5 3 3 2 7 3 -0 4 6 16 8 9 25 7 -1 1 -0 10 3 1 -1 -7 2 5 7 8 4 6 5 4 4 4 6 6 7 6 5 7 8 7 5 6 7 6 6 6 5 6
-10 1 -4 5 3 5 26 13 6 13 15 13 -6 15 27 7 10 14 17 12 6 9 1 2 1 2 6 2 4 5 4 2 3 3 3 6 2 5 8 6 5 3 3 2 6 4 0 3 3 13 4 3 29 12 -6 1 3 10 3 -3 2 -4 1 6 6 8 6 6 6 5 3 4 6 6 6 4 3 5 6 5 5 5 6 6 5 5 5 5
-7 -4 -6 1 10 1 18 25 9 1 15 13 -19 5 27 8 7 2 7 12 7 11 4 3 3 2 4 2 4 4 4 -0 -1 4 2 3 2 4 8 7 7 4 3 1 5 6 0 2 1 11 6 -6 22 22 -7 -1 8 8 3 -1 6 5 1 4 6 7 8 7 5 4 3 4 6 7 5 4 4 4 4 5 6 5 6 7 6 5 5 5
5 -2 -3 -1 18 12 5 23 23 2 11 11 -22 2 22 5 18 12 5 11 5 8 7 4 2 4 5 2 6 4 3 2 -3 3 2 4 5 6 9 7 8 5 3 2 3 7 2 2 0 5 11 -4 11 28 -1 -4 13 4 2 4 4 5 -2 -2 4 7 9 7 4 4 4 3 4 6 5 4 4 3 5 6 5 5 6 7 6 5 4 4
8 -10 -2 -6 9 21 4 7 25 15 16 9 -24 7 29 2 17 25 13 15 11 4 4 9 4 3 6 2 7 5 4 5 1 4 3 4 7 7 9 7 8 5 2 3 3 7 3 1 1 -0 12 5 3 25 6 -7 13 5 -1 7 2 2 -0 -1 6 7 8 7 4 5 6 4 4 6 5 4 5 4 5 5 4 5 5 6 6 5 3 4
13 -16 -12 -16 1 29 13 -6 12 21 24 12 -31 -10 32 10 2 17 17 15 19 16 2 6 9 4 6 4 4 2 2 5 1 6 6 4 6 6 6 5 7 8 3 2 3 7 6 1 1 -3 7 12 3 14 12 -1 9 4 -2 5 1 2 3 2 9 9 7 7 5 4 5 5 4 5 6 5 5 6 6 4 4 5 5 7 6 5 5 4
19 -12 -23 -27 -0 30 18 -4 3 13 17 20 -20 -33 21 33 2 -4 12 14 13 23 16 6 7 7 8 7 7 3 3 7 2 5 8 5 5 4 5 5 5 8 5 1 4 6 7 4 1 -2 1 13 7 1 13 15 10 5 1 2 -0 1 2 -1 5 10 7 7 6 5 5 4 5 5 6 5 4 5 6 4 5 5 5 6 5 5 5 5
25 -1 -22 -32 -5 30 27 6 6 12 5 17 1 -39 -11 31 19 -6 1 14 8 9 20 17 10 8 9 8 5 3 3 7 3 2 6 5 3 2 4 7 5 8 5 -1 4 7 8 7 2 1 -1 11 16 -2 8 24 13 8 5 1 1 -0 2 -2 -1 6 8 7 5 5 5 4 5 6 6 5 4 4 5 4 5 6 5 5 6 5 5 6
28 8 -10 -30 -19 24 34 10 6 18 11 12 11 -16 -19 2 13 10 0 5 10 3 7 15 16 11 9 11 5 1 3 6 4 -0 2 6 6 5 4 8 7 7 6 -1 3 7 7 10 5 4 0 6 19 0 3 25 16 11 9 2 2 0 2 1 -2 4 8 7 5 4 5 6 8 6 6 6 5 5 5 4 5 6 4 4 6 6 6 6
27 11 2 -21 -28 10 31 15 0 11 29 18 -3 0 17 11 -2 5 8 5 10 12 6 7 19 19 10 10 7 3 6 6 6 2 1 7 9 9 6 9 10 7 7 -1 1 6 4 11 12 11 6 2 15 3 -1 24 19 11 13 6 4 2 2 3 2 6 9 7 5 6 6 7 8 5 5 7 5 6 5 4 6 6 5 5 5 6 7 4
27 9 9 -6 -29 -5 25 20 -3 0 30 19 -16 -10 26 41 19 2 6 9 10 14 14 7 8 16 15 11 6 3 4 4 7 6 3 4 6 11 9 8 10 9 9 1 1 8 1 4 9 10 10 6 16 6 -5 17 21 15 13 4 5 6 4 5 5 7 10 8 5 5 8 7 6 5 4 6 5 7 6 5 7 6 6 6 5 6 6 4
30 6 9 9 -34 -25 25 21 -4 5 20 9 -15 -17 12 40 38 21 4 0 7 12 19 19 9 11 18 18 10 2 1 2 6 6 5 5 2 6 6 7 10 7 8 3 3 12 2 -3 3 4 5 7 12 7 3 17 21 23 18 -2 -0 6 4 4 4 7 8 7 6 5 8 8 5 5 5 5 6 7 5 6 7 6 7 7 6 7 6 5
33 7 2 25 -28 -43 25 22 -2 13 5 1 -9 -17 21 32 17 27 19 -2 1 8 12 19 21 19 18 16 12 8 4 3 6 6 7 9 6 6 7 8 10 7 6 3 4 15 11 1 2 4 4 4 3 1 12 24 16 23 26 1 -5 3 3 4 3 6 8 6 6 7 8 7 5 5 6 6 6 7 6 7 8 6 7 8 7 7 7 6
36 12 -7 35 -4 -46 15 23 13 14 -24 -3 11 -13 26 34 4 18 26 8 -3 -3 6 14 19 17 11 8 7 10 13 10 10 11 9 8 8 7 8 8 8 6 5 3 4 10 11 6 3 6 3 -2 -1 -4 8 26 20 23 29 12 4 6 2 3 3 5 10 8 6 8 9 7 6 5 5 5 6 6 6 6 7 6 6 7 8 9 8 7
35 15 -7 36 20 -32 -6 12 28 16 -45 -16 19 -4 19 30 13 16 21 26 11 -13 -15 -6 -0 0 7 15 11 9 12 11 10 9 7 6 8 8 6 8 6 4 4 4 6 7 11 11 4 -0 -3 -1 13 14 9 18 19 17 22 18 13 13 7 4 6 6 9 8 5 8 11 8 6 5 4 5 6 6 5 5 6 5 6 7 8 10 9 6
33 15 -0 32 31 -15 -25 -3 33 16 -39 -15 9 -1 16 16 11 12 5 22 32 10 -11 -12 -5 -1 8 14 12 13 6 2 5 6 9 7 7 9 7 9 7 4 3 2 3 8 11 9 3 1 2 13 34 33 10 2 8 11 17 18 13 14 12 9 10 9 8 7 4 9 11 7 6 6 4 5 6 5 5 6 5 6 7 8 9 10 9 6
32 13 7 28 30 -4 -31 -12 24 10 -16 8 12 -2 8 7 5 7 -3 7 31 35 17 7 10 10 13 8 8 22 16 4 4 2 6 8 8 8 6 8 9 6 4 4 3 4 6 3 4 5 -8 -10 6 14 9 3 4 12 16 16 13 12 12 12 12 9 8 6 4 8 10 7 5 5 5 5 6 6 5 7 6 5 7 7 8 8 7 7
30 14 9 26 27 3 -26 -24 1 -4 -16 4 18 10 11 12 11 9 1 4 18 23 11 3 4 3 6 5 0 10 17 16 12 2 -4 1 5 7 7 7 9 7 3 6 8 6 10 6 4 6 -5 -15 -19 -21 -11 -6 -6 9 19 16 14 12 9 12 14 10 9 6 3 8 10 7 5 4 5 5 5 5 4 6 5 4 5 4 6 8 6 7
26 16 10 25 26 13 -12 -31 -25 -22 -32 -15 17 18 8 9 15 18 5 -0 9 10 6 2 1 5 8 8 0 -6 3 13 15 12 7 6 6 6 10 9 8 8 3 5 9 10 16 12 7 8 5 6 4 -10 -15 -16 -20 -7 15 21 14 11 8 10 15 13 11 6 2 7 10 7 5 4 4 5 5 5 4 4 4 3 3 3 5 7 6 5
20 17 15 22 21 23 13 -20 -33 -26 -27 -12 13 9 6 12 13 19 5 -9 7 11 10 12 7 11 15 16 16 9 7 10 12 15 15 15 12 8 10 9 8 7 4 7 8 10 14 13 14 16 10 8 14 13 5 0 -7 -15 3 24 19 13 10 7 14 15 10 7 2 5 10 7 5 4 4 5 5 4 3 3 4 3 2 3 4 6 5 5
13 18 18 18 16 23 26 6 -16 -18 -22 -20 -5 -5 11 25 10 13 8 -8 9 12 5 13 9 7 9 8 16 18 12 9 11 13 12 13 11 11 10 7 8 6 3 7 8 10 11 8 11 14 16 13 8 11 9 12 15 1 4 21 21 18 14 6 12 16 9 8 4 3 9 8 6 5 3 4 5 4 4 3 3 2 3 3 4 5 5 5
10 18 16 16 15 17 31 34 5 -16 -27 -35 -14 -1 11 25 10 11 18 2 6 8 -2 5 7 5 9 6 6 11 11 6 8 13 12 11 9 9 12 9 10 9 6 5 3 7 9 10 11 7 13 19 13 10 6 7 15 11 12 19 18 17 14 8 11 15 10 7 4 3 8 8 6 6 4 4 4 4 3 4 3 2 3 3 2 4 4 3
8 14 16 12 8 17 37 34 -3 -16 -11 -22 -3 17 13 18 9 8 19 11 13 15 5 5 1 -1 6 7 5 7 12 4 1 11 11 9 10 9 11 9 7 11 14 12 7 6 9 13 14 7 5 6 5 8 11 11 11 11 12 13 16 17 12 8 9 15 15 7 3 5 6 7 7 5 5 4 3 4 4 3 3 1 2 3 1 3 3 2
9 9 17 9 3 25 36 16 -9 2 12 -10 -5 10 7 15 12 6 9 5 9 7 -0 3 0 0 3 3 8 9 13 10 1 8 9 4 7 8 8 7 4 6 10 15 14 10 10 14 15 14 11 3 -1 5 12 9 3 6 6 4 16 22 11 5 9 18 17 7 6 7 5 8 8 5 5 5 3 4 4 2 2 1 1 2 1 2 4 3
8 8 14 5 8 29 35 21 4 -0 -12 -23 1 2 -5 22 15 -3 8 7 9 6 -0 6 5 7 6 0 8 8 8 14 6 6 11 4 2 7 10 9 8 7 4 6 12 9 7 9 10 10 12 11 6 2 5 5 2 7 8 6 18 23 14 6 9 18 16 9 10 7 4 7 8 4 4 5 4 2 3 1 1 2 1 1 1 2 5 5
5 11 11 5 12 18 29 33 7 -9 -33 -36 22 19 -9 26 15 -11 10 11 11 15 7 9 1 2 8 -0 3 3 -1 9 10 6 9 7 2 5 10 6 5 10 9 8 11 12 11 12 9 5 5 11 12 7 8 10 10 13 13 10 14 18 17 10 9 16 12 6 10 6 3 6 7 7 4 3 4 2 1 1 1 2 1 0 1 2 4 6
4 13 10 6 11 4 26 29 -10 2 -6 -34 20 26 -10 24 19 -5 12 7 10 18 8 11 5 1 10 5 1 0 -6 0 10 9 6 6 5 3 3 0 -2 2 1 1 5 7 10 12 14 12 8 8 8 6 7 8 10 11 11 12 14 14 16 14 12 12 4 2 11 9 3 6 8 9 6 2 4 2 2 3 -0 0 2 2 2 2 3 5
6 15 10 7 11 6 33 28 -20 2 10 -16 21 19 -18 5 10 1 10 -0 6 13 3 8 6 1 7 9 10 7 -1 -2 5 12 9 6 8 5 3 5 7 10 8 5 6 7 7 8 12 15 14 10 5 1 -0 3 3 1 1 7 15 15 12 16 14 3 -2 6 16 10 3 7 7 6 6 3 3 3 2 3 2 1 2 3 3 3 2 3
7 15 9 6 11 10 29 28 2 12 -1 -21 12 10 -18 -7 4 10 10 -2 3 6 3 4 2 7 9 9 11 4 1 1 1 10 11 5 8 9 5 4 6 10 14 14 11 13 11 6 7 10 13 13 10 4 -1 -2 -3 -3 0 1 11 20 15 13 15 7 1 8 15 11 5 7 6 4 7 3 2 5 3 1 3 2 3 3 3 4 4 4
7 15 9 5 13 13 21 17 12 28 6 -24 -5 8 -1 -1 6 13 6 2 8 4 7 8 5 12 10 9 14 2 -1 2 -3 6 12 3 2 6 5 3 3 4 6 3 -1 6 13 12 10 9 13 17 16 10 3 2 2 1 2 -5 -0 21 24 15 18 15 6 8 15 13 4 4 5 4 7 3 -2 3 6 4 2 2 3 5 4 4 4 4
5 15 8 6 14 11 19 18 5 19 22 1 -1 8 10 8 17 23 9 6 12 5 5 9 10 14 10 10 14 2 -1 0 -3 3 9 4 2 5 8 9 8 8 7 3 -4 -3 4 10 12 10 13 18 19 18 11 6 7 5 5 -3 -11 10 28 23 19 18 12 10 12 10 6 5 4 3 6 6 -1 -2 5 8 6 4 3 4 4 6 6 4
7 13 7 8 12 2 8 21 10 9 20 11 -1 5 14 15 20 23 11 7 18 19 14 10 10 13 13 14 11 4 0 -3 -0 4 -0 1 4 2 5 8 11 11 9 9 5 -3 -3 -0 1 1 4 8 11 18 17 13 12 11 11 7 -0 12 27 21 14 16 17 13 8 9 11 9 5 5 5 5 1 -4 -1 5 8 7 6 5 4 4 5 6
12 9 7 7 8 8 7 15 21 20 18 7 -4 6 19 14 -2 -10 -10 -6 4 14 15 10 10 8 9 15 13 7 2 -8 -2 11 5 -0 2 1 -1 -2 2 10 8 5 4 3 4 3 -0 2 7 7 4 7 12 13 13 11 9 13 19 21 18 16 15 12 9 7 6 10 13 10 7 7 6 4 2 -2 -3 0 5 6 6 7 8 7 5 5
16 5 8 5 6 15 7 11 21 12 8 7 1 2 3 -2 -9 -10 -5 -6 -7 9 17 9 12 14 8 13 18 13 8 -7 -10 8 10 1 2 6 4 -2 -3 1 1 2 7 12 17 13 6 8 14 14 10 6 6 7 6 7 7 13 19 13 10 20 20 9 4 4 7 12 13 11 9 6 5 6 2 -1 -1 -1 1 6 6 6 8 9 8 6
15 2 7 6 8 11 5 21 20 -4 4 16 9 6 -3 -10 -2 8 13 4 -5 13 27 14 13 18 7 10 25 21 10 -2 -10 3 9 2 7 6 -1 2 4 -2 -3 5 13 15 19 20 13 10 13 15 15 12 10 9 6 5 6 9 11 5 13 26 19 10 10 7 8 13 11 11 13 9 5 6 4 1 2 1 -0 3 6 6 4 4 6 7
7 2 9 8 9 8 9 23 8 -5 18 17 1 9 9 6 11 8 3 -3 -10 0 15 17 18 20 11 12 24 21 9 -2 -8 2 7 4 12 10 -1 -0 1 0 3 6 7 5 9 15 14 11 10 10 12 13 15 16 13 11 9 9 10 7 13 22 18 14 13 6 7 12 11 12 15 13 7 5 5 3 3 4 1 1 2 6 7 5 5 6
2 1 10 9 8 9 9 4 -7 4 22 6 -3 8 6 10 17 7 -1 1 2 -1 4 19 24 18 14 14 16 16 10 -1 -9 -4 7 13 14 11 6 -1 -1 14 21 10 1 1 4 8 10 10 7 6 9 10 12 14 14 15 13 11 12 12 13 14 14 19 17 9 7 7 8 12 14 13 9 6 7 6 4 4 5 4 3 3 7 9 8 8
2 1 7 9 8 12 8 -7 -6 13 13 -3 5 13 4 3 0 -5 1 4 0 -4 -1 15 23 16 14 14 18 20 11 3 -3 -15 -8 19 27 19 18 15 13 23 24 16 13 10 9 10 9 11 9 7 8 7 8 11 11 13 12 10 12 14 18 14 12 23 23 12 10 7 5 11 15 14 11 6 8 11 9 7 8 9 5 1 3 6 9 9
0 -1 5 9 7 13 10 -3 -3 6 8 5 8 6 4 3 -8 -11 -1 -2 -8 -6 -1 9 20 19 10 7 17 25 13 4 3 -17 -23 9 25 14 13 18 20 19 10 5 7 3 4 8 8 11 11 8 9 8 6 7 8 9 9 9 10 12 16 11 11 24 22 11 12 9 4 10 14 13 10 4 4 10 11 9 11 14 11 5 1 1 4 7
2 0 3 4 4 9 8 6 3 -4 -1 6 4 2 2 5 7 5 5 2 -3 -5 -4 9 27 26 9 0 7 18 17 10 7 -5 -18 -11 -6 -11 -6 2 11 20 16 10 11 11 12 12 11 13 11 9 9 5 3 2 2 5 6 7 8 11 15 14 16 24 18 9 14 11 7 16 17 12 11 4 -0 5 10 9 11 15 16 14 9 4 2 3
-0 -2 1 0 2 4 -0 6 10 0 -1 1 -2 2 3 1 10 15 15 17 12 3 -3 8 26 24 10 6 5 8 16 16 14 12 -2 -18 -27 -26 -15 -4 4 12 9 7 12 14 13 11 10 11 11 10 4 -0 6 13 13 11 10 9 7 7 11 12 13 19 17 16 20 13 9 17 17 14 12 6 -1 1 7 12 15 18 19 18 15 11 7 5
1 4 8 4 1 -1 -3 4 9 6 6 3 -4 0 6 6 8 11 12 14 14 12 7 7 18 19 12 11 9 7 12 14 14 16 9 -3 -13 -21 -23 -15 -0 6 0 1 9 9 9 11 7 6 11 11 2 0 9 21 27 24 19 21 22 18 16 12 11 14 14 16 19 15 13 16 17 15 11 7 3 -1 1 9 14 18 19 17 14 12 10 10
5 11 11 7 1 -1 4 6 5 6 2 -5 -4 5 15 16 7 5 7 3 2 8 8 6 11 16 14 9 6 6 7 9 11 9 6 4 4 3 -2 -6 -0 5 1 0 6 8 10 12 8 5 8 8 5 8 8 10 18 20 16 18 22 23 26 26 27 24 17 17 20 19 18 17 19 20 13 7 8 4 3 6 6 6 9 13 16 16 13 11
12 15 8 7 8 8 11 0 -8 1 0 -9 -6 4 16 15 -3 -6 5 3 -2 0 5 5 5 12 20 12 5 5 3 5 9 7 5 1 -5 -0 4 -2 -6 -2 3 2 1 6 11 11 10 8 8 7 8 12 10 7 8 8 8 9 9 15 21 23 28 28 25 28 26 18 19 20 22 26 17 6 10 11 7 4 2 3 5 8 12 16 17 16
19 15 4 5 8 10 15 7 -1 8 12 8 4 -0 8 14 -0 -4 7 9 2 -4 -0 4 0 9 25 18 6 6 3 0 0 0 3 1 -4 -4 -4 -6 -12 -14 -4 3 1 6 12 10 8 6 6 7 7 10 12 11 8 6 8 9 5 7 10 9 14 16 15 21 18 12 20 24 23 28 21 4 -0 2 3 3 3 4 5 6 7 9 12 14
24 16 8 8 7 7 14 12 4 3 2 3 3 -7 -4 5 3 2 6 10 10 3 3 7 1 7 25 23 9 3 3 4 6 6 6 0 -2 -2 -5 -1 -1 -9 -7 2 4 6 9 11 10 7 8 8 4 7 10 8 8 10 9 7 2 1 2 5 12 11 8 11 9 9 20 21 17 25 25 11 1 1 7 11 9 6 5 7 10 10 10 11
19 8 5 7 7 9 16 12 4 3 2 2 -1 -6 -4 -1 -2 -1 -1 3 10 8 6 11 9 13 22 19 10 8 10 13 14 16 18 13 10 12 10 10 13 14 13 13 15 13 10 11 9 4 9 11 5 7 7 3 9 13 7 3 5 6 7 8 10 12 12 10 8 16 25 19 14 18 20 16 12 9 10 11 10 12 12 11 10 9 8 9
7 -2 -4 1 -0 0 7 8 8 11 11 8 3 -4 -1 5 9 11 9 7 7 2 3 14 21 20 15 10 11 14 16 14 11 10 15 17 17 25 33 30 27 32 30 20 19 19 13 12 10 4 8 11 8 8 5 3 11 15 10 11 12 9 10 10 9 11 13 11 13 18 13 8 14 19 15 12 8 3 6 10 11 12 10 5 2 -1 -1 1
Height
5624 5631 5636 5642 5647 5652 5660 5668 5676 5683 5691 5698 5702 5707 5712 5716 5722 5727 5733 5738 5742 5747 5752 5757 5761 5765 5769 5773 5777 5780 5783 5787 5790 5794 5797 5802 5805 5808 5809 5812 5814 5817 5821 5823 5826 5827 5829 5831 5833 5835 5838 5840 5842 5845 5848 5849 5851 5854 5855 5857 5860 5863 5865 5867 5869 5870 5872 5874 5875 5875 5876 5877 5878 5879 5880 5881 5882 5883 5884 5885 5886 5886 5887 5888 5888 5889 5890 5890
5618 5626 5631 5637 5643 5648 5655 5662 5670 5678 5686 5693 5697 5702 5707 5711 5717 5722 5727 5733 5737 5742 5747 5752 5757 5761 5765 5769 5772 5776 5780 5783 5787 5791 5795 5798 5801 5804 5807 5809 5811 5813 5818 5821 5823 5825 5827 5829 5830 5833 5835 5838 5840 5842 5845 5847 5849 5852 5853 5855 5859 5862 5864 5865 5867 5869 5870 5872 5873 5873 5875 5876 5877 5878 5879 5880 5881 5883 5884 5885 5885 5886 5887 5888 5888 5889 5890 5890
5610 5619 5626 5632 5639 5645 5651 5657 5665 5672 5679 5686 5693 5698 5702 5707 5712 5717 5722 5727 5733 5738 5743 5748 5753 5757 5761 5764 5768 5772 5775 5779 5783 5788 5792 5795 5798 5801 5804 5806 5809 5810 5814 5818 5820 5823 5826 5827 5828 5830 5833 5835 5838 5840 5843 5845 5847 5850 5851 5855 5859 5860 5861 5863 5866 5867 5868 5869 5871 5873 5873 5875 5876 5878 5879 5879 5881 5882 5884 5884 5885 5885 5886 5888 5888 5889 5890 5890
5602 5613 5622 5627 5634 5641 5647 5652 5659 5667 5675 5682 5690 5695 5698 5702 5707 5712 5717 5722 5728 5733 5739 5744 5748 5752 5756 5760 5764 5768 5771 5775 5781 5786 5789 5792 5795 5798 5801 5804 5806 5807 5810 5815 5818 5821 5824 5825 5826 5828 5830 5832 5835 5837 5840 5843 5845 5847 5850 5855 5857 5857 5858 5861 5864 5865 5865 5867 5870 5871 5872 5874 5875 5877 5878 5879 5881 5882 5882 5883 5884 5885 5887 5888 5888 5889 5889 5890
5596 5607 5616 5622 5629 5637 5642 5649 5655 5663 5671 5679 5687 5692 5695 5699 5702 5707 5712 5717 5723 5729 5734 5739 5743 5747 5751 5756 5759 5763 5767 5772 5779 5783 5785 5788 5792 5795 5798 5801 5803 5804 5807 5811 5815 5818 5821 5823 5824 5825 5828 5830 5832 5835 5837 5840 5842 5844 5850 5854 5853 5853 5856 5859 5861 5862 5863 5865 5867 5869 5872 5872 5873 5875 5876 5878 5878 5879 5880 5882 5883 5884 5886 5887 5888 5889 5889 5890
5592 5601 5611 5618 5625 5632 5638 5644 5651 5659 5667 5675 5685 5689 5690 5694 5697 5702 5707 5712 5718 5724 5729 5733 5738 5742 5746 5751 5755 5759 5763 5770 5776 5779 5781 5785 5788 5792 5795 5798 5800 5802 5804 5808 5812 5814 5817 5820 5821 5822 5825 5827 5830 5832 5834 5837 5839 5842 5848 5850 5849 5851 5854 5857 5859 5860 5861 5863 5866 5868 5868 5870 5872 5874 5874 5875 5875 5877 5880 5882 5883 5883 5885 5886 5887 5888 5889 5889
5589 5595 5606 5614 5620 5627 5634 5639 5645 5653 5661 5671 5681 5684 5686 5690 5694 5698 5703 5708 5713 5719 5724 5728 5733 5737 5742 5746 5750 5755 5760 5766 5772 5775 5777 5781 5784 5788 5792 5795 5797 5799 5801 5804 5808 5811 5813 5816 5818 5820 5822 5824 5827 5829 5832 5834 5836 5840 5845 5847 5846 5848 5852 5854 5857 5858 5860 5861 5863 5864 5865 5868 5871 5872 5872 5873 5873 5876 5879 5880 5882 5883 5884 5886 5886 5887 5888 5889
5585 5591 5600 5608 5615 5622 5629 5635 5640 5648 5657 5665 5675 5680 5683 5687 5690 5694 5698 5703 5708 5713 5719 5723 5728 5732 5737 5742 5746 5751 5757 5762 5767 5770 5773 5777 5781 5785 5788 5792 5794 5796 5798 5801 5805 5808 5811 5813 5816 5818 5819 5821 5824 5826 5830 5832 5834 5837 5841 5843 5843 5846 5849 5852 5854 5856 5858 5859 5860 5861 5864 5867 5868 5869 5870 5870 5871 5874 5876 5878 5881 5882 5883 5884 5885 5886 5887 5888
5580 5586 5594 5602 5610 5617 5623 5630 5637 5645 5654 5662 5670 5676 5680 5683 5686 5689 5693 5698 5703 5709 5714 5718 5723 5728 5733 5738 5742 5748 5755 5760 5764 5768 5770 5774 5778 5782 5785 5788 5792 5794 5796 5798 5802 5805 5807 5810 5813 5814 5816 5819 5821 5824 5828 5829 5830 5835 5839 5840 5840 5843 5847 5849 5851 5854 5856 5856 5857 5860 5863 5865 5866 5868 5869 5869 5870 5873 5875 5877 5879 5880 5882 5883 5884 5885 5886 5887
5574 5580 5589 5597 5605 5612 5617 5625 5633 5642 5651 5659 5666 5670 5674 5678 5681 5685 5690 5695 5699 5704 5709 5714 5718 5723 5728 5733 5738 5745 5752 5755 5760 5764 5767 5770 5774 5778 5782 5785 5789 5791 5793 5796 5799 5802 5805 5808 5810 5811 5813 5815 5818 5821 5824 5825 5828 5833 5836 5838 5838 5841 5844 5847 5849 5851 5853 5854 5855 5858 5860 5862 5864 5866 5868 5868 5870 5872 5874 5875 5877 5879 5880 5881 5883 5884 5885 5886
5569 5574 5583 5592 5600 5607 5612 5621 5630 5638 5646 5655 5662 5665 5667 5672 5676 5682 5687 5691 5696 5700 5704 5709 5714 5719 5724 5730 5736 5743 5748 5750 5754 5759 5761 5765 5770 5774 5778 5782 5785 5788 5791 5793 5796 5800 5803 5805 5807 5809 5810 5812 5815 5818 5820 5822 5826 5830 5833 5835 5836 5838 5842 5845 5847 5848 5850 5852 5853 5855 5857 5859 5861 5865 5867 5867 5868 5869 5871 5873 5875 5877 5879 5880 5882 5883 5885 5885
5563 5568 5577 5586 5595 5602 5607 5617 5628 5634 5642 5651 5659 5661 5663 5667 5673 5679 5683 5687 5692 5696 5700 5705 5709 5714 5720 5725 5732 5738 5743 5746 5749 5754 5757 5761 5766 5769 5773 5777 5781 5784 5787 5789 5792 5796 5799 5801 5803 5805 5806 5809 5812 5814 5817 5820 5823 5826 5830 5832 5833 5835 5839 5843 5845 5846 5848 5850 5851 5852 5853 5855 5860 5865 5865 5864 5865 5867 5869 5871 5873 5876 5878 5879 5881 5882 5884 5884
5558 5563 5571 5580 5590 5598 5603 5613 5623 5630 5638 5648 5657 5661 5662 5666 5672 5677 5680 5684 5688 5692 5697 5701 5705 5710 5714 5720 5727 5733 5736 5740 5744 5749 5754 5758 5762 5766 5770 5773 5777 5780 5783 5785 5788 5791 5794 5797 5799 5801 5803 5806 5808 5811 5814 5816 5819 5822 5825 5828 5830 5831 5835 5840 5842 5844 5846 5847 5849 5849 5850 5855 5862 5863 5862 5862 5864 5866 5868 5870 5872 5874 5876 5878 5879 5881 5882 5883
5553 5558 5566 5575 5586 5594 5599 5609 5618 5625 5634 5645 5655 5660 5661 5665 5669 5673 5678 5682 5685 5689 5692 5696 5700 5705 5710 5716 5722 5727 5731 5735 5739 5745 5750 5755 5759 5763 5767 5770 5773 5776 5779 5781 5784 5787 5790 5793 5795 5797 5799 5802 5805 5808 5810 5812 5815 5818 5820 5824 5827 5827 5832 5836 5838 5841 5843 5845 5846 5846 5849 5856 5860 5859 5859 5861 5863 5865 5867 5868 5870 5872 5874 5876 5878 5879 5880 5882
5547 5553 5560 5571 5582 5589 5595 5605 5614 5621 5630 5640 5649 5654 5657 5660 5664 5669 5674 5678 5682 5685 5688 5692 5696 5699 5705 5711 5716 5721 5726 5731 5737 5742 5747 5751 5755 5759 5763 5766 5770 5774 5777 5779 5781 5784 5786 5789 5793 5794 5796 5799 5802 5803 5806 5808 5811 5813 5816 5820 5823 5824 5829 5833 5835 5837 5840 5842 5844 5843 5848 5855 5856 5854 5856 5859 5860 5863 5865 5866 5868 5870 5872 5874 5876 5877 5879 5880
5542 5548 5556 5567 5577 5584 5592 5601 5610 5618 5625 5634 5642 5647 5651 5655 5659 5663 5669 5675 5680 5682 5684 5686 5690 5696 5701 5705 5711 5716 5722 5728 5733 5738 5743 5747 5751 5754 5758 5761 5766 5770 5773 5775 5778 5781 5783 5786 5789 5790 5793 5796 5798 5800 5803 5805 5807 5809 5813 5817 5819 5822 5827 5830 5831 5834 5837 5839 5840 5841 5847 5853 5852 5851 5855 5857 5859 5861 5862 5864 5867 5869 5870 5872 5874 5875 5876 5878
5537 5543 5551 5562 5571 5579 5588 5597 5605 5613 5621 5629 5637 5642 5646 5651 5655 5660 5666 5671 5674 5675 5679 5683 5688 5693 5693 5698 5707 5714 5720 5725 5730 5734 5739 5743 5747 5751 5755 5758 5762 5765 5768 5771 5773 5777 5780 5782 5785 5787 5790 5792 5794 5798 5799 5801 5804 5808 5810 5814 5816 5819 5823 5826 5829 5831 5833 5836 5837 5839 5845 5849 5849 5850 5854 5856 5857 5859 5861 5863 5865 5866 5868 5870 5871 5873 5875 5876
5532 5538 5546 5557 5565 5574 5585 5592 5600 5609 5617 5624 5631 5638 5642 5646 5651 5657 5660 5661 5664 5668 5671 5675 5680 5681 5683 5695 5707 5713 5719 5723 5727 5731 5735 5739 5744 5748 5752 5755 5758 5761 5764 5767 5769 5773 5775 5778 5781 5783 5785 5788 5792 5796 5799 5803 5806 5808 5808 5810 5813 5815 5819 5823 5825 5828 5831 5833 5834 5837 5842 5846 5846 5848 5852 5854 5855 5857 5859 5860 5862 5863 5865 5867 5869 5871 5873 5875
5527 5533 5541 5552 5560 5570 5580 5587 5595 5604 5612 5617 5624 5632 5637 5640 5645 5650 5652 5651 5653 5657 5660 5664 5670 5676 5687 5701 5707 5710 5715 5719 5723 5727 5730 5735 5740 5744 5748 5751 5754 5757 5760 5762 5765 5768 5771 5774 5776 5778 5783 5789 5794 5798 5801 5804 5804 5803 5803 5805 5809 5811 5815 5820 5822 5825 5827 5830 5832 5835 5840 5844 5844 5846 5850 5852 5853 5855 5856 5857 5859 5861 5863 5865 5867 5869 5871 5873
5522 5528 5537 5548 5556 5565 5574 5582 5590 5598 5604 5609 5614 5619 5623 5627 5631 5637 5644 5646 5648 5655 5661 5667 5673 5681 5691 5699 5701 5703 5707 5712 5718 5723 5726 5730 5736 5741 5745 5748 5751 5753 5756 5758 5761 5763 5766 5768 5771 5778 5786 5791 5793 5794 5796 5797 5797 5797 5799 5801 5805 5808 5812 5816 5818 5820 5823 5826 5828 5832 5837 5841 5842 5844 5847 5848 5851 5852 5853 5855 5858 5860 5862 5864 5866 5867 5869 5870
5517 5523 5531 5544 5552 5559 5568 5577 5586 5592 5596 5600 5605 5609 5615 5622 5627 5633 5639 5641 5646 5656 5662 5667 5673 5679 5686 5691 5694 5698 5702 5708 5714 5718 5721 5726 5731 5736 5740 5744 5748 5750 5754 5757 5759 5761 5762 5764 5770 5778 5782 5784 5785 5787 5789 5791 5792 5794 5796 5798 5801 5804 5809 5813 5814 5816 5820 5823 5826 5829 5833 5836 5838 5840 5842 5844 5847 5849 5851 5854 5856 5858 5859 5861 5863 5864 5866 5867
5512 5517 5527 5539 5546 5554 5563 5571 5581 5587 5589 5593 5600 5608 5618 5628 5634 5638 5641 5640 5643 5651 5656 5663 5670 5675 5680 5685 5687 5693 5699 5706 5710 5712 5716 5722 5727 5732 5737 5741 5744 5747 5750 5753 5755 5758 5760 5764 5770 5773 5774 5777 5780 5782 5785 5786 5788 5791 5792 5794 5797 5802 5806 5809 5810 5813 5816 5819 5823 5826 5829 5833 5834 5835 5838 5841 5844 5847 5848 5851 5852 5853 5854 5856 5859 5861 5862 5863
5506 5513 5523 5533 5541 5549 5556 5565 5574 5578 5580 5587 5596 5607 5618 5627 5633 5636 5642 5643 5641 5643 5651 5658 5665 5672 5677 5679 5682 5689 5696 5702 5706 5710 5715 5720 5724 5729 5734 5737 5741 5744 5746 5749 5753 5756 5759 5763 5767 5769 5770 5773 5776 5778 5780 5782 5785 5788 5790 5792 5796 5800 5803 5806 5808 5810 5813 5816 5819 5822 5824 5828 5830 5831 5834 5837 5841 5843 5844 5846 5848 5849 5852 5854 5857 5858 5859 5862
5502 5509 5518 5530 5537 5542 5550 5559 5564 5567 5575 5586 5596 5606 5617 5624 5629 5632 5637 5640 5638 5639 5646 5652 5659 5667 5671 5675 5680 5687 5692 5698 5703 5708 5713 5718 5722 5727 5731 5734 5737 5740 5743 5747 5750 5752 5755 5759 5763 5766 5768 5770 5772 5775 5776 5778 5783 5787 5789 5791 5795 5798 5800 5803 5805 5806 5809 5811 5815 5819 5820 5823 5826 5827 5830 5834 5837 5839 5841 5843 5845 5847 5851 5854 5854 5856 5858 5861
5497 5504 5515 5525 5531 5537 5543 5546 5552 5562 5574 5583 5591 5603 5613 5620 5627 5630 5633 5634 5634 5637 5642 5648 5655 5660 5665 5671 5675 5680 5687 5693 5698 5704 5709 5714 5718 5723 5727 5730 5734 5737 5740 5742 5745 5747 5750 5754 5758 5762 5765 5767 5769 5771 5773 5777 5781 5785 5788 5791 5793 5796 5797 5799 5800 5802 5804 5806 5811 5815 5814 5818 5823 5823 5826 5830 5833 5837 5838 5840 5843 5846 5849 5851 5852 5855 5857 5858
5492 5500 5510 5519 5526 5530 5529 5534 5549 5562 5569 5577 5588 5600 5609 5616 5623 5627 5630 5630 5629 5632 5637 5643 5649 5653 5659 5665 5669 5676 5682 5686 5692 5698 5703 5707 5712 5718 5722 5726 5729 5732 5735 5737 5740 5743 5746 5750 5754 5757 5760 5763 5765 5768 5771 5775 5779 5783 5787 5790 5790 5792 5793 5795 5796 5797 5799 5802 5808 5810 5810 5815 5820 5820 5823 5827 5829 5834 5836 5838 5841 5843 5845 5847 5850 5853 5854 5856
5487 5495 5504 5513 5519 5517 5520 5537 5551 5555 5563 5576 5587 5597 5605 5612 5618 5623 5626 5624 5622 5625 5631 5637 5642 5648 5655 5662 5667 5673 5676 5682 5689 5693 5697 5702 5706 5711 5716 5720 5724 5727 5730 5733 5736 5740 5744 5748 5751 5754 5756 5758 5761 5766 5770 5774 5777 5782 5786 5786 5786 5788 5790 5791 5792 5792 5795 5799 5802 5805 5806 5809 5814 5817 5820 5822 5825 5830 5832 5834 5837 5839 5841 5844 5848 5851 5852 5854
5482 5490 5499 5507 5510 5514 5528 5544 5546 5550 5568 5581 5587 5596 5602 5608 5615 5619 5617 5612 5612 5619 5627 5632 5639 5646 5652 5658 5663 5668 5674 5683 5687 5688 5693 5698 5701 5705 5710 5715 5719 5721 5724 5728 5732 5737 5741 5744 5749 5752 5753 5757 5761 5765 5768 5770 5774 5778 5781 5781 5781 5783 5784 5785 5786 5788 5791 5792 5795 5801 5803 5802 5807 5814 5816 5817 5821 5825 5828 5831 5834 5836 5839 5842 5846 5848 5850 5851
5477 5485 5493 5501 5507 5516 5529 5536 5540 5556 5573 5580 5585 5594 5601 5605 5610 5611 5607 5603 5605 5614 5623 5630 5636 5641 5647 5653 5658 5664 5672 5678 5682 5687 5691 5693 5696 5702 5706 5709 5712 5714 5719 5724 5728 5733 5736 5740 5745 5748 5751 5756 5760 5762 5764 5767 5770 5774 5776 5776 5776 5775 5777 5779 5780 5782 5784 5784 5788 5797 5800 5797 5802 5809 5811 5812 5816 5821 5825 5828 5831 5834 5837 5840 5843 5845 5846 5847
5471 5479 5489 5496 5501 5509 5517 5525 5538 5556 5567 5575 5582 5589 5596 5601 5600 5597 5595 5595 5599 5609 5617 5625 5632 5637 5643 5649 5654 5661 5666 5671 5677 5683 5687 5690 5694 5698 5700 5702 5705 5711 5717 5722 5726 5730 5734 5737 5741 5745 5749 5753 5755 5757 5760 5762 5765 5768 5770 5769 5769 5769 5771 5773 5774 5777 5776 5776 5784 5794 5797 5795 5796 5804 5808 5808 5813 5819 5823 5825 5828 5832 5834 5836 5839 5840 5842 5843
5465 5474 5482 5488 5496 5504 5511 5522 5534 5546 5559 5570 5577 5582 5589 5591 5589 5585 5585 5590 5597 5605 5613 5620 5628 5636 5643 5647 5652 5658 5663 5668 5674 5677 5681 5687 5691 5692 5695 5698 5703 5709 5714 5719 5723 5728 5731 5734 5738 5743 5746 5748 5750 5752 5754 5757 5759 5761 5762 5763 5764 5765 5766 5767 5768 5769 5768 5772 5783 5790 5792 5790 5789 5797 5806 5807 5810 5815 5817 5820 5824 5828 5830 5831 5834 5836 5837 5839
5460 5470 5477 5486 5497 5504 5513 5528 5537 5543 5556 5565 5569 5574 5578 5580 5579 5577 5581 5589 5594 5600 5610 5619 5627 5635 5642 5647 5653 5657 5661 5666 5671 5675 5680 5684 5687 5691 5695 5700 5705 5708 5712 5716 5720 5724 5728 5732 5735 5738 5741 5743 5745 5747 5749 5751 5752 5754 5756 5759 5760 5761 5762 5762 5763 5764 5766 5774 5781 5783 5785 5784 5782 5792 5803 5804 5806 5809 5812 5816 5820 5824 5826 5828 5830 5832 5834 5836
5456 5466 5475 5486 5495 5502 5516 5531 5536 5542 5552 5560 5564 5567 5569 5569 5569 5573 5580 5587 5592 5602 5613 5621 5628 5634 5637 5641 5647 5654 5660 5665 5669 5673 5677 5681 5684 5689 5693 5699 5703 5706 5711 5715 5716 5720 5725 5729 5732 5734 5737 5739 5742 5744 5745 5747 5749 5750 5753 5755 5756 5757 5758 5758 5760 5762 5767 5772 5775 5777 5779 5778 5779 5787 5796 5800 5803 5806 5808 5812 5815 5819 5822 5824 5827 5829 5831 5833
5454 5463 5472 5483 5492 5503 5516 5522 5528 5539 5549 5555 5559 5560 5561 5561 5564 5572 5580 5586 5593 5602 5610 5615 5621 5626 5630 5636 5642 5650 5656 5660 5665 5669 5673 5675 5679 5684 5690 5697 5701 5704 5709 5711 5713 5718 5723 5726 5731 5733 5735 5737 5739 5741 5743 5745 5746 5747 5749 5749 5750 5753 5755 5757 5758 5760 5765 5767 5768 5770 5772 5774 5777 5782 5790 5797 5800 5802 5805 5808 5812 5815 5818 5821 5823 5825 5827 5830
5452 5461 5472 5480 5488 5499 5507 5514 5524 5535 5543 5551 5554 5553 5553 5555 5562 5571 5577 5584 5592 5597 5604 5612 5617 5620 5625 5633 5640 5645 5650 5655 5661 5666 5669 5674 5678 5684 5690 5695 5699 5702 5706 5708 5712 5716 5720 5724 5728 5730 5731 5733 5735 5737 5738 5738 5740 5742 5743 5743 5746 5752 5754 5755 5755 5757 5762 5762 5762 5765 5768 5772 5775 5777 5784 5793 5796 5799 5802 5805 5808 5811 5814 5817 5820 5822 5824 5826
5447 5456 5466 5473 5482 5490 5498 5509 5521 5530 5539 5546 5547 5546 5549 5557 5566 5573 5579 5587 5592 5596 5602 5606 5610 5615 5621 5628 5634 5640 5647 5655 5659 5661 5666 5673 5678 5682 5687 5691 5695 5699 5703 5708 5711 5713 5717 5720 5723 5724 5726 5728 5730 5732 5733 5733 5736 5737 5737 5740 5747 5751 5749 5749 5750 5753 5756 5757 5758 5762 5767 5772 5775 5775 5781 5790 5794 5796 5799 5802 5805 5808 5810 5813 5816 5818 5820 5822
5436 5447 5456 5466 5478 5488 5496 5507 5517 5527 5536 5540 5541 5545 5553 5562 5569 5574 5581 5588 5592 5596 5600 5601 5605 5612 5619 5625 5630 5637 5645 5652 5656 5659 5664 5669 5673 5680 5685 5690 5694 5697 5701 5705 5707 5710 5713 5715 5718 5720 5721 5723 5725 5727 5728 5730 5732 5732 5734 5740 5745 5742 5741 5744 5746 5747 5748 5751 5755 5759 5763 5768 5771 5772 5777 5786 5791 5794 5796 5799 5801 5803 5806 5809 5811 5814 5815 5817
5432 5444 5454 5465 5477 5487 5497 5507 5516 5526 5532 5534 5541 5549 5554 5560 5565 5570 5576 5583 5588 5592 5597 5601 5606 5612 5617 5624 5630 5636 5643 5647 5651 5657 5663 5668 5673 5679 5684 5688 5692 5696 5699 5701 5703 5705 5708 5710 5713 5715 5716 5718 5719 5721 5723 5725 5727 5729 5733 5737 5737 5735 5738 5741 5741 5742 5744 5748 5751 5754 5757 5761 5765 5768 5772 5779 5786 5790 5792 5795 5797 5800 5802 5804 5807 5809 5810 5812
5433 5443 5454 5466 5477 5488 5497 5506 5515 5523 5525 5526 5534 5542 5547 5553 5561 5567 5574 5580 5586 5591 5595 5601 5608 5612 5617 5624 5630 5635 5641 5646 5651 5656 5661 5667 5674 5679 5682 5686 5690 5693 5696 5698 5700 5702 5703 5705 5708 5710 5711 5712 5714 5717 5720 5722 5724 5726 5729 5731 5731 5733 5737 5737 5737 5740 5742 5744 5748 5750 5752 5755 5761 5766 5768 5773 5781 5785 5787 5791 5793 5796 5798 5800 5802 5803 5805 5806
5431 5441 5452 5463 5475 5485 5495 5504 5512 5515 5516 5521 5531 5538 5545 5553 5560 5566 5573 5580 5586 5591 5596 5601 5606 5612 5618 5623 5628 5634 5640 5645 5650 5655 5660 5665 5671 5676 5680 5683 5687 5691 5693 5694 5696 5698 5699 5701 5704 5705 5706 5708 5711 5714 5717 5718 5720 5722 5724 5726 5728 5730 5732 5732 5734 5736 5738 5740 5744 5746 5747 5751 5758 5763 5765 5768 5775 5780 5783 5786 5789 5790 5793 5795 5797 5798 5800 5802
5431 5442 5451 5460 5471 5480 5488 5497 5502 5506 5513 5522 5530 5536 5544 5552 5557 5563 5570 5577 5584 5589 5596 5601 5605 5611 5615 5620 5625 5631 5637 5643 5649 5654 5658 5663 5667 5672 5677 5681 5685 5687 5689 5690 5691 5694 5696 5698 5700 5701 5703 5706 5709 5711 5712 5714 5716 5718 5720 5722 5725 5727 5727 5727 5729 5732 5734 5736 5739 5740 5742 5747 5753 5758 5761 5764 5770 5775 5779 5782 5785 5787 5788 5790 5792 5795 5797 5798
5431 5440 5449 5458 5465 5472 5480 5487 5494 5503 5514 5520 5525 5532 5541 5547 5554 5562 5569 5574 5579 5585 5591 5597 5602 5608 5613 5618 5624 5630 5634 5641 5647 5652 5657 5662 5667 5671 5675 5679 5681 5683 5685 5686 5688 5690 5692 5694 5696 5698 5701 5703 5704 5705 5708 5709 5711 5713 5715 5718 5721 5722 5722 5723 5725 5729 5730 5730 5733 5735 5737 5743 5749 5754 5758 5761 5766 5770 5773 5777 5780 5782 5784 5785 5787 5789 5792 5793
5431 5442 5452 5460 5465 5470 5475 5482 5491 5501 5509 5516 5524 5532 5539 5545 5552 5559 5565 5570 5575 5581 5587 5592 5598 5604 5611 5617 5623 5628 5632 5638 5644 5651 5656 5660 5664 5667 5671 5675 5677 5679 5681 5682 5683 5685 5687 5689 5692 5694 5696 5697 5699 5701 5703 5705 5707 5709 5711 5714 5715 5716 5719 5720 5722 5725 5724 5724 5729 5731 5733 5740 5747 5750 5754 5758 5762 5765 5768 5771 5775 5777 5779 5781 5782 5784 5786 5788
5431 5444 5453 5458 5465 5470 5472 5477 5486 5494 5503 5513 5520 5527 5534 5542 5549 5556 5562 5569 5576 5582 5587 5592 5596 5603 5610 5615 5620 5627 5632 5636 5641 5648 5653 5658 5661 5664 5667 5670 5672 5675 5677 5679 5680 5682 5683 5685 5687 5689 5691 5692 5694 5696 5699 5701 5703 5704 5706 5708 5709 5711 5714 5715 5717 5719 5717 5720 5726 5727 5730 5738 5744 5747 5750 5754 5759 5761 5763 5766 5768 5771 5773 5775 5777 5778 5780 5781
5428 5440 5448 5454 5461 5467 5473 5482 5491 5496 5503 5510 5517 5524 5533 5541 5548 5557 5564 5570 5576 5581 5587 5592 5597 5601 5606 5612 5617 5623 5629 5635 5641 5645 5650 5654 5657 5659 5663 5667 5670 5672 5675 5675 5675 5676 5678 5681 5684 5686 5688 5690 5692 5695 5698 5699 5699 5698 5700 5702 5703 5705 5707 5709 5712 5712 5712 5718 5722 5723 5729 5735 5740 5743 5745 5749 5754 5757 5759 5760 5762 5765 5767 5769 5771 5772 5774 5776
5425 5430 5438 5446 5455 5463 5472 5485 5495 5500 5505 5511 5517 5524 5532 5539 5547 5554 5560 5564 5570 5577 5583 5589 5593 5596 5600 5606 5612 5617 5623 5630 5636 5642 5647 5652 5654 5657 5661 5665 5667 5669 5670 5670 5671 5673 5675 5678 5682 5685 5687 5689 5690 5692 5695 5696 5695 5697 5699 5700 5701 5702 5703 5705 5705 5705 5709 5714 5715 5720 5727 5730 5734 5738 5741 5744 5750 5752 5754 5755 5757 5758 5761 5763 5765 5767 5768 5770
5427 5428 5431 5437 5446 5456 5466 5477 5487 5497 5505 5512 5518 5524 5531 5538 5543 5547 5552 5559 5567 5574 5580 5584 5588 5592 5597 5602 5607 5614 5620 5625 5631 5638 5644 5648 5652 5655 5658 5661 5662 5664 5665 5666 5668 5671 5672 5676 5680 5682 5683 5684 5685 5686 5688 5690 5691 5693 5695 5696 5697 5699 5701 5701 5702 5705 5709 5708 5709 5717 5724 5725 5729 5734 5736 5740 5745 5747 5749 5750 5751 5753 5755 5757 5759 5761 5762 5764
5425 5432 5438 5443 5444 5448 5458 5470 5482 5494 5503 5510 5517 5523 5528 5533 5538 5544 5551 5558 5565 5571 5576 5580 5585 5591 5597 5602 5607 5612 5616 5621 5627 5634 5638 5642 5646 5650 5653 5655 5658 5660 5663 5664 5666 5669 5671 5674 5677 5678 5678 5680 5681 5682 5683 5685 5686 5687 5688 5689 5691 5693 5695 5697 5700 5705 5707 5705 5709 5718 5721 5722 5727 5730 5732 5736 5740 5741 5742 5744 5745 5748 5751 5752 5754 5755 5756 5758
5424 5431 5440 5448 5452 5458 5468 5478 5487 5495 5501 5506 5512 5519 5525 5531 5538 5546 5552 5557 5562 5568 5573 5579 5585 5591 5596 5601 5606 5609 5612 5617 5623 5628 5633 5638 5643 5646 5648 5650 5654 5657 5659 5661 5663 5666 5668 5670 5671 5673 5674 5675 5677 5678 5680 5681 5682 5682 5682 5684 5686 5687 5689 5692 5696 5699 5700 5701 5706 5712 5714 5717 5722 5725 5729 5733 5734 5735 5738 5739 5741 5744 5745 5747 5748 5749 5751 5753
5427 5432 5438 5446 5456 5467 5476 5483 5490 5496 5499 5505 5513 5519 5526 5533 5539 5545 5551 5556 5562 5568 5573 5579 5585 5591 5594 5598 5601 5606 5612 5619 5624 5628 5632 5635 5637 5641 5643 5646 5650 5653 5655 5656 5658 5661 5663 5664 5666 5668 5668 5670 5673 5674 5675 5676 5677 5677 5678 5680 5682 5684 5686 5688 5690 5692 5693 5694 5699 5702 5703 5708 5715 5720 5724 5727 5728 5731 5733 5734 5736 5738 5739 5741 5742 5743 5745 5747
5432 5440 5447 5453 5459 5465 5471 5479 5487 5492 5496 5502 5511 5518 5524 5532 5539 5544 5550 5555 5561 5567 5573 5578 5583 5586 5589 5594 5598 5605 5613 5620 5625 5629 5633 5635 5638 5641 5642 5644 5646 5647 5648 5651 5653 5655 5657 5657 5660 5662 5663 5665 5669 5670 5671 5673 5672 5671 5674 5678 5680 5681 5682 5683 5685 5686 5688 5691 5694 5695 5697 5703 5710 5715 5718 5721 5723 5725 5726 5729 5731 5733 5734 5735 5736 5737 5740 5743
5431 5440 5449 5455 5461 5466 5472 5478 5482 5487 5494 5502 5510 5517 5525 5532 5537 5542 5547 5553 5558 5564 5569 5574 5577 5579 5583 5589 5597 5605 5611 5616 5620 5624 5628 5632 5636 5639 5639 5641 5642 5643 5644 5646 5648 5651 5653 5655 5656 5658 5660 5662 5665 5666 5669 5669 5667 5668 5674 5678 5677 5677 5678 5680 5681 5683 5686 5688 5689 5691 5695 5701 5707 5711 5714 5717 5718 5720 5723 5726 5726 5725 5726 5727 5729 5733 5737 5739